Location: Newark
(49.2191°N, 12.6671°E)
Time: 06:17:01
(UTC+00:00)

Transit 4A - Pass Details

Date: 24 January 2020
Orbit: 872 x 973 km, 66.8° (Epoch: 17 February)

Event Time Altitude Azimuth Distance (km) Brightness Sun altitude
Rises 07:42:06 0° 248° (WSW) 3,532 10.6 6.0°
Reaches altitude 10° 07:44:54 10° 258° (WSW) 2,578 9.9 6.4°
Maximum altitude 07:50:14 33° 322° (NW) 1,447 8.5 7.0°
Drops below altitude 10° 07:55:32 10° 26° (NNE) 2,542 10.1 7.7°
Sets 07:58:16 0° 36° (NE) 3,477 10.8 8.0°
